Погода в Фирсовом

Россия / Забайкальский край     52°18′46″N   118°07′44″E
темп.,
°C
ветер,
м/с
пор.,
м/с
влажн.,
%
обл.,
%
осадки,
мм/ч
давл.,
гПа
погр.,
м
18 сентября, сб
сб1800:00+1ююз11661 0.0 102110
03:000юз11685 0.0 102210
06:00−1ююз117276 0.0 102310
09:00+5св0052100 0.0 1023158
12:00+11сз0130100 0.0 1020973
15:00+13з1225100 0.0 10181512
18:00+10зсз11445 0.0 101723
21:00+4ююз11573 0.0 102010
19 сентября, вс
вс1900:00+2ююз11650 0.0 102110
03:00+1ююз11700 0.0 102110
06:00+1ююз11780 0.0 102211
09:00+7зюз11610 0.0 1021213
12:00+14зюз13480 0.0 1018910
15:00+16з34475 0.0 10161379
18:00+14з13645 0.0 101574
21:00+7ю11905 0.0 101711
20 сентября, пн
пн2000:00+6ю22935 0.0 101726
03:00+5ю22955 0.0 101632
06:00+5ю22955 0.0 101623
09:00+10ююз1275100 0.0 1014167
12:00+16зюз1252100 0.0 1012858
15:00+17з3352100 0.0 10101281
18:00+14зюз117417 0.0 101055
21:00+9ю119411 0.0 101214
21 сентября, вт
вт2100:00+8вюв119521 0.0 101210
03:00+9в1191100 0.0 101121
06:00+9всв1191100 0.0 101119
09:00+10всв128585 0.0 1011138
12:00+14в136573 0.0 1010530
15:00+18юв235157 0.0 10071217
18:00+16вюв246439 0.0 1007126
21:00+10юв22845 0.0 100934
22 сентября, ср
ср2200:00+9ююв229010 0.0 100928
03:00+8юв229473 0.0 101031
06:00+7юв229644 0.0 101035
09:00+11юв2478100 0.0 1011192
12:00+12ююв2573100 0.0 1011430
15:00+11ю1179100 0.1 101249
18:00+11сз1284100 0.1 101336
21:00+8сз1198100 0.6 101650